Zurück zum Katalog

STARLINK-5455

AktivKommunikationVLEO
NORAD 55668·PAYLOAD·🇺🇸 United States

Gestartet Feb 17, 2023 von Vandenberg Space Force Base

Loading…

Nächste Überflüge (nächste 24 Stunden)

TLE

AktuellSource: CelesTrak SupGP

Epoche: Sep 15, 2026, 03:01 UTC

1 55668C 23021AS  26258.12618056 -.00026198  00000+0 -21960-2 0  2585
2 55668  70.0021  46.8781 0002982 269.3190 276.6092 14.98335691    19

Verfolge STARLINK-5455 in Echtzeit mit AllMySat

Download on the App Store